,,Stat6,,Stat2,,Stat8,,Stat9,,Stat10,,Wind1,,Wind1,
time,status,PA1M_AVG,status,PR1M_SUM,status,RH1M_AVG,status,SR1M_AVG,status,TA1M_AVG,status,W1dAve1m,status,W1sAve1m,
2005-10-14, 00:00:00,VALID,918.365,VALID,0,VALID,100,VALID,0.0169808,VALID,19.699,VALID,30,VALID,0,
2005-10-14, 00:01:00,VALID,918.355,VALID,0,VALID,100,VALID,0.0169808,VALID,19.7092,VALID,38,VALID,0.363991,
2005-10-14, 00:02:00,VALID,918.352,VALID,0,VALID,100,VALID,0.0339617,VALID,19.6734,VALID,59,VALID,0.590661,
2005-10-14, 00:03:00,VALID,918.346,VALID,0,VALID,100,VALID,-0.101885,VALID,19.6617,VALID,69,VALID,0.728906,
2005-10-14, 00:04:00,VALID,918.337,VALID,0,VALID,100,VALID,-0.101885,VALID,19.6456,VALID,83,VALID,0.605923,
2005-10-14, 00:05:00,VALID,918.329,VALID,0,VALID,100,VALID,-0.0849042,VALID,19.655,VALID,95,VALID,0.397879,
2005-10-14, 00:06:00,VALID,918.324,VALID,0,VALID,100,VALID,-0.101885,VALID,19.6555,VALID,95,VALID,0.318677,
2005-10-14, 00:07:00,VALID,918.321,VALID,0,VALID,100,VALID,-0.0339617,VALID,19.652,VALID,95,VALID,0.15407,
2005-10-14, 00:08:00,VALID,918.314,VALID,0,VALID,100,VALID,-0.0849042,VALID,19.6615,VALID,95,VALID,0.11471,
2005-10-14, 00:09:00,VALID,918.318,VALID,0,VALID,100,VALID,-0.0849042,VALID,19.6746,VALID,95,VALID,0.122461,
2005-10-14, 00:10:00,VALID,918.305,VALID,0,VALID,100,VALID,-0.0679233,VALID,19.6841,VALID,95,VALID,0.0404297,
2005-10-14, 00:11:00,VALID,918.321,VALID,0,VALID,100,VALID,-0.0339617,VALID,19.6806,VALID,94,VALID,0.381359,
2005-10-14, 00:12:00,VALID,918.318,VALID,0,VALID,100,VALID,-0.0509425,VALID,19.6677,VALID,62,VALID,0.593928,
2005-10-14, 00:13:00,VALID,918.318,VALID,0,VALID,100,VALID,-0.0849042,VALID,19.6525,VALID,37,VALID,0.906783,
2005-10-14, 00:14:00,VALID,918.314,VALID,0,VALID,100,VALID,-0.118866,VALID,19.6135,VALID,32,VALID,0.847384,
2005-10-14, 00:15:00,VALID,918.31,VALID,0,VALID,100,VALID,-0.101885,VALID,19.5974,VALID,31,VALID,0.741132,
2005-10-14, 00:16:00,VALID,918.308,VALID,0,VALID,100,VALID,-0.0849042,VALID,19.5743,VALID,37,VALID,0.782812,
2005-10-14, 00:17:00,VALID,918.309,VALID,0,VALID,100,VALID,-0.0509425,VALID,19.5613,VALID,38,VALID,0.823847,
2005-10-14, 00:18:00,VALID,918.304,VALID,0,VALID,100,VALID,-0.0679233,VALID,19.5616,VALID,38,VALID,0.751065,
2005-10-14, 00:19:00,VALID,918.292,VALID,0,VALID,100,VALID,-0.0339617,VALID,19.5454,VALID,39,VALID,0.667014,
2005-10-14, 00:20:00,VALID,918.275,VALID,0,VALID,100,VALID,-0.0679233,VALID,19.5355,VALID,39,VALID,0.501453,
2005-10-14, 00:21:00,VALID,918.272,VALID,0,VALID,100,VALID,-0.0339617,VALID,19.5191,VALID,39,VALID,0.320313,
2005-10-14, 00:22:00,VALID,918.256,VALID,0,VALID,100,VALID,-0.0509425,VALID,19.5129,VALID,39,VALID,0.102493,
2005-10-14, 00:23:00,VALID,918.225,VALID,0,VALID,100,VALID,-0.0169808,VALID,19.5097,VALID,39,VALID,0.145647,
2005-10-14, 00:24:00,VALID,918.217,VALID,0,VALID,100,VALID,-0.0339617,VALID,19.5067,VALID,39,VALID,0,
2005-10-14, 00:25:00,VALID,918.208,VALID,0,VALID,100,VALID,-0.0849042,VALID,19.5002,VALID,39,VALID,0,
2005-10-14, 00:26:00,VALID,918.199,VALID,0,VALID,100,VALID,-0.0679233,VALID,19.49,VALID,39,VALID,0,
2005-10-14, 00:27:00,VALID,918.209,VALID,0,VALID,100,VALID,-0.0339617,VALID,19.4808,VALID,39,VALID,0,
2005-10-14, 00:28:00,VALID,918.206,VALID,0,VALID,100,VALID,-0.0509425,VALID,19.4744,VALID,39,VALID,0,
2005-10-14, 00:29:00,VALID,918.208,VALID,0,VALID,100,VALID,-0.0509425,VALID,19.4843,VALID,39,VALID,0.0459666,
2005-10-14, 00:30:00,VALID,918.204,VALID,0,VALID,100,VALID,-0.0509425,VALID,19.4908,VALID,39,VALID,0.257813,
2005-10-14, 00:31:00,VALID,918.185,VALID,0,VALID,100,VALID,-0.0339617,VALID,19.4935,VALID,39,VALID,0.169331,
2005-10-14, 00:32:00,VALID,918.176,VALID,0,VALID,100,VALID,-0.0679233,VALID,19.5035,VALID,39,VALID,0.0133384,
2005-10-14, 00:33:00,VALID,918.175,VALID,0,VALID,100,VALID,-0.0509425,VALID,19.5064,VALID,39,VALID,0,
2005-10-14, 00:34:00,VALID,918.151,VALID,0,VALID,100,VALID,-0.0849042,VALID,19.5293,VALID,39,VALID,0,
2005-10-14, 00:35:00,VALID,918.139,VALID,0,VALID,100,VALID,-0.0169808,VALID,19.5325,VALID,39,VALID,0,
2005-10-14, 00:36:00,VALID,918.138,VALID,0,VALID,100,VALID,-0.0679233,VALID,19.5385,VALID,39,VALID,0,
2005-10-14, 00:37:00,VALID,918.128,VALID,0,VALID,100,VALID,-0.101885,VALID,19.5457,VALID,39,VALID,0,
2005-10-14, 00:38:00,VALID,918.115,VALID,0,VALID,100,VALID,-0.0849042,VALID,19.5196,VALID,39,VALID,0.10191,
2005-10-14, 00:39:00,VALID,918.1,VALID,0,VALID,100,VALID,-0.0679233,VALID,19.5107,VALID,39,VALID,0.230097,
2005-10-14, 00:40:00,VALID,918.066,VALID,0,VALID,100,VALID,-0.0679233,VALID,19.497,VALID,40,VALID,0.294922,
2005-10-14, 00:41:00,VALID,918.079,VALID,0,VALID,100,VALID,-0.0849042,VALID,19.5035,VALID,40,VALID,0.241997,
2005-10-14, 00:42:00,VALID,918.069,VALID,0,VALID,100,VALID,-0.0679233,VALID,19.5072,VALID,40,VALID,0.315217,
2005-10-14, 00:43:00,VALID,918.053,VALID,0,VALID,100,VALID,-0.0679233,VALID,19.5002,VALID,40,VALID,0.437682,
2005-10-14, 00:44:00,VALID,918.054,VALID,0,VALID,100,VALID,-0.101885,VALID,19.497,VALID,40,VALID,0.282552,
2005-10-14, 00:45:00,VALID,918.055,VALID,0,VALID,100,VALID,-0.101885,VALID,19.4843,VALID,40,VALID,0.328835,
2005-10-14, 00:46:00,VALID,918.042,VALID,0,VALID,100,VALID,-0.0849042,VALID,19.4682,VALID,40,VALID,0.482922,
2005-10-14, 00:47:00,VALID,918.043,VALID,0,VALID,100,VALID,-0.0679233,VALID,19.4746,VALID,40,VALID,0.144531,
2005-10-14, 00:48:00,VALID,918.043,VALID,0,VALID,100,VALID,-0.0849042,VALID,19.4808,VALID,354,VALID,0.15263,
2005-10-14, 00:49:00,VALID,918.036,VALID,0,VALID,100,VALID,-0.0679233,VALID,19.4908,VALID,285,VALID,0.396763,
2005-10-14, 00:50:00,VALID,918.027,VALID,0,VALID,100,VALID,-0.0509425,VALID,19.5062,VALID,285,VALID,0.0368304,
2005-10-14, 00:51:00,VALID,918.011,VALID,0,VALID,100,VALID,-0.0849042,VALID,19.5131,VALID,285,VALID,0.00381944,
2005-10-14, 00:52:00,VALID,917.987,VALID,0,VALID,100,VALID,-0.0679233,VALID,19.5293,VALID,285,VALID,0,
2005-10-14, 00:53:00,VALID,917.948,VALID,0,VALID,100,VALID,-0.0339617,VALID,19.5196,VALID,285,VALID,0.0012718,
2005-10-14, 00:54:00,VALID,917.926,VALID,0,VALID,100,VALID,-0.0679233,VALID,19.5198,VALID,285,VALID,0,
2005-10-14, 00:55:00,VALID,917.905,VALID,0,VALID,100,VALID,-0.0679233,VALID,19.5097,VALID,285,VALID,0,
2005-10-14, 00:56:00,VALID,917.895,VALID,0,VALID,100,VALID,-0.0169808,VALID,19.5124,VALID,285,VALID,0,
2005-10-14, 00:57:00,VALID,917.888,VALID,0,VALID,100,VALID,-0.0169808,VALID,19.5164,VALID,285,VALID,0,
2005-10-14, 00:58:00,VALID,917.888,VALID,0,VALID,100,VALID,-0.0679233,VALID,19.5166,VALID,285,VALID,0,
2005-10-14, 00:59:00,VALID,917.881,VALID,0,VALID,100,VALID,-0.0849042,VALID,19.5201,VALID,285,VALID,0,
2005-10-14, 01:00:00,VALID,917.873,VALID,0,VALID,100,VALID,-0.0339617,VALID,19.5134,VALID,288,VALID,0.145894,
2005-10-14, 01:01:00,VALID,917.865,VALID,0,VALID,100,VALID,-0.0509425,VALID,19.4972,VALID,359,VALID,0.467507,
2005-10-14, 01:02:00,VALID,917.867,VALID,0,VALID,100,VALID,-0.0169808,VALID,19.4446,VALID,18,VALID,0.467076,
2005-10-14, 01:03:00,VALID,917.872,VALID,0,VALID,100,VALID,-0.0679233,VALID,19.4356,VALID,21,VALID,0.582031,
2005-10-14, 01:04:00,VALID,917.867,VALID,0,VALID,100,VALID,-0.0339617,VALID,19.416,VALID,29,VALID,0.615767,
2005-10-14, 01:05:00,VALID,917.872,VALID,0,VALID,100,VALID,-0.0679233,VALID,19.3999,VALID,29,VALID,0.516016,
2005-10-14, 01:06:00,VALID,917.868,VALID,0,VALID,100,VALID,-0.0509425,VALID,19.3934,VALID,29,VALID,0.354421,
2005-10-14, 01:07:00,VALID,917.858,VALID,0,VALID,100,VALID,-0.0509425,VALID,19.3805,VALID,29,VALID,0.00436047,
2005-10-14, 01:08:00,VALID,917.853,VALID,0,VALID,100,VALID,-0.0339617,VALID,19.3773,VALID,29,VALID,0.119186,
2005-10-14, 01:09:00,VALID,917.844,VALID,0,VALID,100,VALID,-0.101885,VALID,19.3678,VALID,29,VALID,0.10918,
2005-10-14, 01:10:00,VALID,917.844,VALID,0,VALID,100,VALID,-0.0339617,VALID,19.3681,VALID,29,VALID,0.0804869,
2005-10-14, 01:11:00,VALID,917.835,VALID,0,VALID,100,VALID,-0.101885,VALID,19.3648,VALID,29,VALID,0.213356,
2005-10-14, 01:12:00,VALID,917.812,VALID,0,VALID,100,VALID,-0.0849042,VALID,19.3387,VALID,29,VALID,0.303125,
2005-10-14, 01:13:00,VALID,917.806,VALID,0,VALID,100,VALID,-0.0679233,VALID,19.3323,VALID,29,VALID,0.197173,
2005-10-14, 01:14:00,VALID,917.78,VALID,0,VALID,100,VALID,-0.0339617,VALID,19.3325,VALID,29,VALID,0.199219,
2005-10-14, 01:15:00,VALID,917.759,VALID,0,VALID,100,VALID,-0.0339617,VALID,19.3226,VALID,29,VALID,0.132813,
2005-10-14, 01:16:00,VALID,917.742,VALID,0,VALID,100,VALID,0,VALID,19.3161,VALID,29,VALID,0.217882,
2005-10-14, 01:17:00,VALID,917.727,VALID,0,VALID,100,VALID,-0.0169808,VALID,19.3224,VALID,29,VALID,0.293527,
2005-10-14, 01:18:00,VALID,917.71,VALID,0,VALID,100,VALID,-0.0169808,VALID,19.3256,VALID,29,VALID,0.325174,
2005-10-14, 01:19:00,VALID,917.681,VALID,0,VALID,100,VALID,-0.0169808,VALID,19.3186,VALID,27,VALID,0.358487,
2005-10-14, 01:20:00,VALID,917.67,VALID,0,VALID,100,VALID,-0.0339617,VALID,19.335,VALID,27,VALID,0.476744,
2005-10-14, 01:21:00,VALID,917.647,VALID,0,VALID,100,VALID,-0.0339617,VALID,19.3387,VALID,35,VALID,0.594815,
2005-10-14, 01:22:00,VALID,917.621,VALID,0,VALID,100,VALID,0,VALID,19.332,VALID,37,VALID,0.243075,
2005-10-14, 01:23:00,VALID,917.604,VALID,0,VALID,100,VALID,-0.0169808,VALID,19.3092,VALID,24,VALID,0.340216,
2005-10-14, 01:24:00,VALID,917.597,VALID,0,VALID,100,VALID,-0.0339617,VALID,19.3,VALID,1,VALID,0.390234,
2005-10-14, 01:25:00,VALID,917.596,VALID,0,VALID,100,VALID,-0.0169808,VALID,19.2933,VALID,320,VALID,0.525799,
2005-10-14, 01:26:00,VALID,917.609,VALID,0,VALID,100,VALID,0,VALID,19.3159,VALID,295,VALID,0.227431,
2005-10-14, 01:27:00,VALID,917.601,VALID,0,VALID,100,VALID,-0.0339617,VALID,19.3385,VALID,295,VALID,0,
2005-10-14, 01:28:00,VALID,917.601,VALID,0,VALID,100,VALID,-0.0509425,VALID,19.3584,VALID,295,VALID,0,
2005-10-14, 01:29:00,VALID,917.595,VALID,0,VALID,100,VALID,-0.0339617,VALID,19.3581,VALID,295,VALID,0.187128,
2005-10-14, 01:30:00,VALID,917.591,VALID,0,VALID,100,VALID,-0.0339617,VALID,19.3579,VALID,295,VALID,0.347929,
2005-10-14, 01:31:00,VALID,917.587,VALID,0,VALID,100,VALID,-0.0169808,VALID,19.3576,VALID,295,VALID,0.0585938,
2005-10-14, 01:32:00,VALID,917.58,VALID,0,VALID,100,VALID,-0.0339617,VALID,19.3643,VALID,295,VALID,0,
2005-10-14, 01:33:00,VALID,917.585,VALID,0,VALID,100,VALID,-0.0339617,VALID,19.381,VALID,295,VALID,0,
2005-10-14, 01:34:00,VALID,917.571,VALID,0,VALID,100,VALID,-0.0679233,VALID,19.3907,VALID,295,VALID,0,
2005-10-14, 01:35:00,VALID,917.567,VALID,0,VALID,100,VALID,-0.0679233,VALID,19.4038,VALID,295,VALID,0,
2005-10-14, 01:36:00,VALID,917.552,VALID,0,VALID,100,VALID,-0.0339617,VALID,19.4197,VALID,295,VALID,0,
2005-10-14, 01:37:00,VALID,917.527,VALID,0,VALID,100,VALID,-0.0509425,VALID,19.4389,VALID,295,VALID,0.0714844,
2005-10-14, 01:38:00,VALID,917.517,VALID,0,VALID,100,VALID,-0.0339617,VALID,19.4259,VALID,295,VALID,0.133185,
2005-10-14, 01:39:00,VALID,917.494,VALID,0,VALID,100,VALID,-0.0339617,VALID,19.4163,VALID,295,VALID,0.255269,
2005-10-14, 01:40:00,VALID,917.49,VALID,0,VALID,100,VALID,0,VALID,19.3999,VALID,295,VALID,0.401456,
2005-10-14, 01:41:00,VALID,917.468,VALID,0,VALID,100,VALID,-0.0339617,VALID,19.3969,VALID,295,VALID,0.111979,
2005-10-14, 01:42:00,VALID,917.452,VALID,0.2,VALID,100,VALID,-0.0339617,VALID,19.3969,VALID,295,VALID,0.0264423,
2005-10-14, 01:43:00,VALID,917.432,VALID,0,VALID,100,VALID,-0.0169808,VALID,19.4133,VALID,295,VALID,0.0332961,
2005-10-14, 01:44:00,VALID,917.418,VALID,0,VALID,100,VALID,-0.0169808,VALID,19.4264,VALID,294,VALID,0,
2005-10-14, 01:45:00,VALID,917.399,VALID,0,VALID,100,VALID,-0.0339617,VALID,19.4262,VALID,295,VALID,0,
2005-10-14, 01:46:00,VALID,917.392,VALID,0,VALID,100,VALID,-0.0169808,VALID,19.41,VALID,295,VALID,0.0647321,
2005-10-14, 01:47:00,VALID,917.389,VALID,0,VALID,100,VALID,-0.0339617,VALID,19.3999,VALID,295,VALID,0.00372869,
2005-10-14, 01:48:00,VALID,917.382,VALID,0,VALID,100,VALID,-0.0169808,VALID,19.413,VALID,295,VALID,0,
2005-10-14, 01:49:00,VALID,917.372,VALID,0,VALID,100,VALID,-0.0169808,VALID,19.4165,VALID,295,VALID,0.0126953,
2005-10-14, 01:50:00,VALID,917.368,VALID,0,VALID,100,VALID,-0.0849042,VALID,19.4167,VALID,303,VALID,0.34707,
2005-10-14, 01:51:00,VALID,917.346,VALID,0,VALID,100,VALID,-0.0339617,VALID,19.4001,VALID,4,VALID,0.324777,
2005-10-14, 01:52:00,VALID,917.329,VALID,0,VALID,100,VALID,0,VALID,19.4003,VALID,4,VALID,0.197311,
2005-10-14, 01:53:00,VALID,917.338,VALID,0,VALID,100,VALID,-0.0509425,VALID,19.3879,VALID,4,VALID,0.015625,
2005-10-14, 01:54:00,VALID,917.311,VALID,0,VALID,100,VALID,-0.0679233,VALID,19.3678,VALID,4,VALID,0,
2005-10-14, 01:55:00,VALID,917.312,VALID,0,VALID,100,VALID,-0.0169808,VALID,19.3613,VALID,4,VALID,0,
2005-10-14, 01:56:00,VALID,917.294,VALID,0,VALID,100,VALID,-0.0509425,VALID,19.3551,VALID,4,VALID,0,
2005-10-14, 01:57:00,VALID,917.271,VALID,0,VALID,100,VALID,-0.101885,VALID,19.3425,VALID,4,VALID,0,
2005-10-14, 01:58:00,VALID,917.263,VALID,0,VALID,100,VALID,-0.0339617,VALID,19.3355,VALID,4,VALID,0,
2005-10-14, 01:59:00,VALID,917.244,VALID,0,VALID,100,VALID,-0.0679233,VALID,19.3517,VALID,4,VALID,0.102628,
2005-10-14, 02:00:00,VALID,917.244,VALID,0,VALID,100,VALID,-0.0679233,VALID,19.3546,VALID,4,VALID,0.152253,
2005-10-14, 02:01:00,VALID,917.224,VALID,0,VALID,100,VALID,-0.0509425,VALID,19.3584,VALID,4,VALID,0.261814,
2005-10-14, 02:02:00,VALID,917.22,VALID,0,VALID,100,VALID,-0.0169808,VALID,19.335,VALID,4,VALID,0.333097,
2005-10-14, 02:03:00,VALID,917.209,VALID,0,VALID,100,VALID,-0.0169808,VALID,19.3484,VALID,4,VALID,0.378634,
2005-10-14, 02:04:00,VALID,917.202,VALID,0,VALID,100,VALID,0,VALID,19.339,VALID,4,VALID,0.501334,
2005-10-14, 02:05:00,VALID,917.196,VALID,0,VALID,100,VALID,-0.0849042,VALID,19.3226,VALID,4,VALID,0.511628,
2005-10-14, 02:06:00,VALID,917.192,VALID,0,VALID,100,VALID,-0.0509425,VALID,19.3064,VALID,4,VALID,0.524148,
2005-10-14, 02:07:00,VALID,917.185,VALID,0,VALID,100,VALID,-0.0339617,VALID,19.2935,VALID,4,VALID,0.637767,
2005-10-14, 02:08:00,VALID,917.183,VALID,0,VALID,100,VALID,-0.0339617,VALID,19.2838,VALID,4,VALID,0.664063,
2005-10-14, 02:09:00,VALID,917.155,VALID,0,VALID,100,VALID,-0.0169808,VALID,19.2809,VALID,7,VALID,0.638951,
2005-10-14, 02:10:00,VALID,917.15,VALID,0.2,VALID,100,VALID,-0.0339617,VALID,19.2675,VALID,14,VALID,0.48165,
2005-10-14, 02:11:00,VALID,917.141,VALID,0,VALID,100,VALID,-0.0169808,VALID,19.258,VALID,14,VALID,0.573552,
2005-10-14, 02:12:00,VALID,917.141,VALID,0,VALID,100,VALID,-0.0509425,VALID,19.249,VALID,14,VALID,0.449886,
2005-10-14, 02:13:00,VALID,917.133,VALID,0,VALID,100,VALID,-0.0509425,VALID,19.2416,VALID,14,VALID,0.516369,
2005-10-14, 02:14:00,VALID,917.117,VALID,0,VALID,100,VALID,0,VALID,19.258,VALID,14,VALID,0.34561,
2005-10-14, 02:15:00,VALID,917.108,VALID,0,VALID,100,VALID,-0.0169808,VALID,19.2578,VALID,14,VALID,0.327553,
2005-10-14, 02:16:00,VALID,917.091,VALID,0,VALID,100,VALID,-0.0339617,VALID,19.255,VALID,14,VALID,0.366338,
2005-10-14, 02:17:00,VALID,917.077,VALID,0,VALID,100,VALID,-0.0339617,VALID,19.2476,VALID,14,VALID,0.511624,
2005-10-14, 02:18:00,VALID,917.063,VALID,0,VALID,100,VALID,0.0169808,VALID,19.231,VALID,16,VALID,0.630556,
2005-10-14, 02:19:00,VALID,917.053,VALID,0,VALID,100,VALID,0.0509425,VALID,19.221,VALID,27,VALID,0.733842,
2005-10-14, 02:20:00,VALID,917.032,VALID,0,VALID,100,VALID,0.0339617,VALID,19.2148,VALID,28,VALID,0.410156,
2005-10-14, 02:21:00,VALID,917.021,VALID,0,VALID,100,VALID,0.0509425,VALID,19.2282,VALID,32,VALID,0.690104,
2005-10-14, 02:22:00,VALID,917.002,VALID,0,VALID,100,VALID,0.0679233,VALID,19.2151,VALID,27,VALID,0.694222,
2005-10-14, 02:23:00,VALID,916.98,VALID,0,VALID,100,VALID,0.0339617,VALID,19.1982,VALID,24,VALID,0.452035,
2005-10-14, 02:24:00,VALID,916.975,VALID,0,VALID,100,VALID,0.0849042,VALID,19.1987,VALID,24,VALID,0.0983232,
2005-10-14, 02:25:00,VALID,916.955,VALID,0,VALID,100,VALID,0.0509425,VALID,19.2019,VALID,24,VALID,0,
2005-10-14, 02:26:00,VALID,916.944,VALID,0,VALID,100,VALID,0.0849042,VALID,19.2084,VALID,24,VALID,0,
2005-10-14, 02:27:00,VALID,916.927,VALID,0,VALID,100,VALID,0.0679233,VALID,19.2021,VALID,24,VALID,0,
2005-10-14, 02:28:00,VALID,916.906,VALID,0,VALID,100,VALID,0.0679233,VALID,19.1855,VALID,24,VALID,0,
2005-10-14, 02:29:00,VALID,916.894,VALID,0,VALID,100,VALID,0.0849042,VALID,19.179,VALID,24,VALID,0,
2005-10-14, 02:30:00,VALID,916.867,VALID,0,VALID,100,VALID,0.0509425,VALID,19.1887,VALID,24,VALID,0,
2005-10-14, 02:31:00,VALID,916.855,VALID,0,VALID,100,VALID,0.0679233,VALID,19.1857,VALID,24,VALID,0,
2005-10-14, 02:32:00,VALID,916.823,VALID,0,VALID,100,VALID,-0.0169808,VALID,19.1773,VALID,24,VALID,0,
2005-10-14, 02:33:00,VALID,916.832,VALID,0,VALID,100,VALID,-0.0509425,VALID,19.1745,VALID,24,VALID,0,
2005-10-14, 02:34:00,VALID,916.825,VALID,0,VALID,100,VALID,-0.0339617,VALID,19.1544,VALID,24,VALID,0,
2005-10-14, 02:35:00,VALID,916.828,VALID,0,VALID,100,VALID,-0.0339617,VALID,19.1648,VALID,24,VALID,0,
2005-10-14, 02:36:00,VALID,916.807,VALID,0,VALID,100,VALID,-0.0849042,VALID,19.1681,VALID,24,VALID,0,
2005-10-14, 02:37:00,VALID,916.785,VALID,0,VALID,100,VALID,-0.0509425,VALID,19.1681,VALID,24,VALID,0.310865,
2005-10-14, 02:38:00,VALID,916.783,VALID,0,VALID,100,VALID,-0.0339617,VALID,19.1581,VALID,24,VALID,0.492374,
2005-10-14, 02:39:00,VALID,916.766,VALID,0,VALID,100,VALID,-0.0339617,VALID,19.1417,VALID,24,VALID,0.53218,
2005-10-14, 02:40:00,VALID,916.764,VALID,0,VALID,100,VALID,-0.0339617,VALID,19.1487,VALID,24,VALID,0.205729,
2005-10-14, 02:41:00,VALID,916.745,VALID,0,VALID,100,VALID,-0.0339617,VALID,19.1323,VALID,24,VALID,0.0181108,
2005-10-14, 02:42:00,VALID,916.726,VALID,0,VALID,100,VALID,-0.0339617,VALID,19.1256,VALID,21,VALID,0.333939,
2005-10-14, 02:43:01,VALID,916.717,VALID,0,VALID,100,VALID,-0.0169808,VALID,19.1194,VALID,332,VALID,0.490699,
2005-10-14, 02:44:00,VALID,916.726,VALID,0,VALID,100,VALID,-0.0339617,VALID,19.1288,VALID,306,VALID,0.419922,
2005-10-14, 02:45:00,VALID,916.727,VALID,0,VALID,100,VALID,-0.0509425,VALID,19.1519,VALID,303,VALID,0.138317,
2005-10-14, 02:46:00,VALID,916.734,VALID,0,VALID,100,VALID,-0.0339617,VALID,19.1646,VALID,303,VALID,0.00954861,
2005-10-14, 02:47:00,VALID,916.729,VALID,0,VALID,100,VALID,-0.0169808,VALID,19.1639,VALID,303,VALID,0,
2005-10-14, 02:48:00,VALID,916.736,VALID,0,VALID,100,VALID,0.0679233,VALID,19.1465,VALID,303,VALID,0.00373641,
2005-10-14, 02:49:00,VALID,916.72,VALID,0,VALID,100,VALID,0.0509425,VALID,19.1631,VALID,304,VALID,0.138951,
2005-10-14, 02:50:00,VALID,916.708,VALID,0,VALID,100,VALID,0.0169808,VALID,19.1694,VALID,304,VALID,0.334375,
2005-10-14, 02:51:00,VALID,916.696,VALID,0,VALID,100,VALID,0.0849042,VALID,19.1731,VALID,304,VALID,0.0283918,
2005-10-14, 02:52:00,VALID,916.71,VALID,0,VALID,100,VALID,0.0509425,VALID,19.1634,VALID,312,VALID,0.112827,
2005-10-14, 02:53:00,VALID,916.717,VALID,0,VALID,100,VALID,0.0679233,VALID,19.1502,VALID,346,VALID,0.174782,
2005-10-14, 02:54:00,VALID,916.731,VALID,0,VALID,100,VALID,0.0509425,VALID,19.1435,VALID,346,VALID,0.094122,
2005-10-14, 02:55:00,VALID,916.726,VALID,0,VALID,100,VALID,0.0679233,VALID,19.144,VALID,327,VALID,0.290015,
2005-10-14, 02:56:00,VALID,916.712,VALID,0,VALID,100,VALID,0.0849042,VALID,19.1567,VALID,316,VALID,0.220348,
2005-10-14, 02:57:00,VALID,916.714,VALID,0,VALID,100,VALID,0.0849042,VALID,19.1468,VALID,346,VALID,0.332386,
2005-10-14, 02:58:01,VALID,916.714,VALID,0,VALID,100,VALID,0.0849042,VALID,19.1438,VALID,346,VALID,0.00400152,
2005-10-14, 02:59:00,VALID,916.719,VALID,0,VALID,100,VALID,0.0679233,VALID,19.1438,VALID,346,VALID,0,
2005-10-14, 03:00:00,VALID,916.714,VALID,0,VALID,100,VALID,0.0679233,VALID,19.1311,VALID,346,VALID,0.0652253,
2005-10-14, 03:01:00,VALID,916.701,VALID,0,VALID,100,VALID,0.0849042,VALID,19.141,VALID,346,VALID,0.0625,
2005-10-14, 03:02:00,VALID,916.711,VALID,0,VALID,100,VALID,0.0169808,VALID,19.1249,VALID,346,VALID,0.0621528,
2005-10-14, 03:03:00,VALID,916.704,VALID,0,VALID,100,VALID,-0.0679233,VALID,19.1325,VALID,346,VALID,0.00223214,
2005-10-14, 03:04:00,VALID,916.695,VALID,0,VALID,100,VALID,-0.0849042,VALID,19.1328,VALID,346,VALID,0,
2005-10-14, 03:05:00,VALID,916.687,VALID,0,VALID,100,VALID,-0.0679233,VALID,19.136,VALID,346,VALID,0.00109012,
2005-10-14, 03:06:01,VALID,916.67,VALID,0,VALID,100,VALID,-0.101885,VALID,19.1388,VALID,348,VALID,0.273082,
2005-10-14, 03:07:00,VALID,916.65,VALID,0,VALID,100,VALID,-0.0679233,VALID,19.1519,VALID,36,VALID,0.630632,
2005-10-14, 03:08:00,VALID,916.655,VALID,0,VALID,100,VALID,-0.0849042,VALID,19.1455,VALID,41,VALID,0.369474,
2005-10-14, 03:09:00,VALID,916.651,VALID,0,VALID,100,VALID,-0.0679233,VALID,19.1291,VALID,41,VALID,0.00232713,
2005-10-14, 03:10:00,VALID,916.659,VALID,0,VALID,100,VALID,-0.0679233,VALID,19.1256,VALID,41,VALID,0.0956101,
2005-10-14, 03:11:00,VALID,916.656,VALID,0,VALID,100,VALID,-0.0509425,VALID,19.1487,VALID,41,VALID,0.0578926,
2005-10-14, 03:12:00,VALID,916.643,VALID,0,VALID,100,VALID,-0.0679233,VALID,19.1455,VALID,41,VALID,0,
2005-10-14, 03:13:00,VALID,916.632,VALID,0,VALID,100,VALID,-0.0169808,VALID,19.148,VALID,41,VALID,0,
2005-10-14, 03:14:01,VALID,916.626,VALID,0,VALID,100,VALID,-0.0679233,VALID,19.1417,VALID,41,VALID,0.0432413,
2005-10-14, 03:15:00,VALID,916.621,VALID,0,VALID,100,VALID,-0.0339617,VALID,19.1452,VALID,41,VALID,0.0855469,
2005-10-14, 03:16:00,VALID,916.63,VALID,0,VALID,100,VALID,-0.101885,VALID,19.1417,VALID,41,VALID,0.009375,
2005-10-14, 03:17:01,VALID,916.624,VALID,0,VALID,100,VALID,-0.0339617,VALID,19.135,VALID,41,VALID,0.335392,
2005-10-14, 03:18:00,VALID,916.612,VALID,0,VALID,100,VALID,0.0339617,VALID,19.1246,VALID,41,VALID,0.222917,
2005-10-14, 03:19:01,VALID,916.585,VALID,0,VALID,100,VALID,0.0339617,VALID,19.1117,VALID,41,VALID,0.0957961,
2005-10-14, 03:20:01,VALID,916.573,VALID,0,VALID,100,VALID,0.0679233,VALID,19.1018,VALID,41,VALID,0.396949,
2005-10-14, 03:21:01,VALID,916.557,VALID,0,VALID,100,VALID,0.0679233,VALID,19.0983,VALID,41,VALID,0.354789,
2005-10-14, 03:22:00,VALID,916.532,VALID,0,VALID,100,VALID,0.0509425,VALID,19.0921,VALID,41,VALID,0.430804,
2005-10-14, 03:23:00,VALID,916.536,VALID,0,VALID,100,VALID,0.0509425,VALID,19.0598,VALID,41,VALID,0.134766,
2005-10-14, 03:24:00,VALID,916.531,VALID,0,VALID,100,VALID,0.0339617,VALID,19.0434,VALID,41,VALID,0,
2005-10-14, 03:25:00,VALID,916.516,VALID,0,VALID,100,VALID,0.0169808,VALID,19.0144,VALID,41,VALID,0,
2005-10-14, 03:26:00,VALID,916.506,VALID,0,VALID,100,VALID,0.0679233,VALID,19.0208,VALID,41,VALID,0,
2005-10-14, 03:27:01,VALID,916.503,VALID,0,VALID,100,VALID,0.0509425,VALID,19.0243,VALID,41,VALID,0.0112847,
2005-10-14, 03:28:00,VALID,916.495,VALID,0,VALID,100,VALID,0.0509425,VALID,19.0141,VALID,41,VALID,0.00483631,
2005-10-14, 03:29:00,VALID,916.502,VALID,0,VALID,100,VALID,0.0679233,VALID,19.0146,VALID,41,VALID,0.0552455,
2005-10-14, 03:30:00,VALID,916.492,VALID,0,VALID,100,VALID,0.0679233,VALID,19.0437,VALID,20,VALID,0.398438,
2005-10-14, 03:31:01,VALID,916.495,VALID,0,VALID,100,VALID,0.0339617,VALID,19.0437,VALID,9,VALID,0.21532,
2005-10-14, 03:32:01,VALID,916.497,VALID,0,VALID,100,VALID,-0.0339617,VALID,19.064,VALID,9,VALID,0,
2005-10-14, 03:33:01,VALID,916.504,VALID,0,VALID,100,VALID,-0.0509425,VALID,19.0712,VALID,9,VALID,0.0584077,
2005-10-14, 03:34:01,VALID,916.503,VALID,0,VALID,100,VALID,-0.0509425,VALID,19.1007,VALID,9,VALID,0.040516,
2005-10-14, 03:35:00,VALID,916.506,VALID,0,VALID,100,VALID,-0.0849042,VALID,19.0968,VALID,9,VALID,0,
2005-10-14, 03:36:01,VALID,916.487,VALID,0,VALID,100,VALID,-0.0849042,VALID,19.103,VALID,9,VALID,0.167969,
2005-10-14, 03:37:00,VALID,916.491,VALID,0,VALID,100,VALID,-0.0339617,VALID,19.1097,VALID,9,VALID,0.194754,
2005-10-14, 03:38:00,VALID,916.472,VALID,0,VALID,100,VALID,-0.0849042,VALID,19.1263,VALID,9,VALID,0.0558594,
2005-10-14, 03:39:01,VALID,916.474,VALID,0,VALID,100,VALID,-0.0339617,VALID,19.1134,VALID,9,VALID,0,
2005-10-14, 03:40:00,VALID,916.473,VALID,0,VALID,100,VALID,-0.101885,VALID,19.1164,VALID,9,VALID,0,
2005-10-14, 03:41:01,VALID,916.483,VALID,0,VALID,100,VALID,-0.101885,VALID,19.1236,VALID,9,VALID,0,
2005-10-14, 03:42:00,VALID,916.479,VALID,0,VALID,100,VALID,-0.0509425,VALID,19.1199,VALID,9,VALID,0,